Location: *
(51.0333°S, 178.4667°E)
Time: 20:16:44
(UTC+00:00)

Envisat - Pass Details

Date: 22 January 2020
Orbit: 764 x 766 km, 98.1° (Epoch: 23 February)

Event Time Altitude Azimuth Distance (km) Brightness Sun altitude
Rises 08:49:56 0° 177° (S) 3,279 6.9 -5.9°
Reaches altitude 10° 08:53:07 10° 197° (SSW) 2,345 6.6 -6.2°
Maximum altitude 08:56:09 16° 233° (SW) 1,953 6.6 -6.6°
Drops below altitude 10° 08:59:10 10° 269° (W) 2,331 6.3 -6.9°
Sets 09:02:19 0° 290° (WNW) 3,250 6.6 -7.3°
